Weather History for Keahole Point, HI

Change the Weather History Date:

Monday, May 6, 2013

  Actual Average Record
Temperature  
Mean Temperature 78 °F -  
Max Temperature 82 °F 80 °F 89 °F (1982)
Min Temperature 73 °F 70 °F 66 °F (1991)
Cooling Degree Days 12    
Growing Degree Days 28 (Base 50)    
Moisture  
Dew Point 66 °F    
Average Humidity 69    
Maximum Humidity 76    
Minimum Humidity 58    
Precipitation  
Precipitation 0.00 in - - ()
Sea Level Pressure  
Sea Level Pressure 29.91 in    
Wind  
Wind Speed 11 mph (South)    
Max Wind Speed 18 mph    
Max Gust Speed -    
Visibility 10 miles    
Events      
Averages and records for this station are not official NWS values.
T = Trace of Precipitation, MM = Missing Value Source: NWS Daily Summary

Daily Weather History Graph

Daily Weather History Graph

Search for Another Location

Airport:

Trip Planner

Search our weather history database for the weather conditions in past years. The results will help you decide how hot, cold, wet, or windy it might be!

Date:

Astronomy

May. 06, 2013 Rise Set
Actual Time 5:52 AM HST 6:49 PM HST
Civil Twilight 5:29 AM HST 7:12 PM HST
Nautical Twilight 5:01 AM HST 7:40 PM HST
Astronomical Twilight 4:33 AM HST 8:08 PM HST
Moon 3:36 AM HST (5/6) 4:19 PM HST (5/6)
Length of Visible Light 13h 43m
Length of Day
12h 57m
Waning Crescent, 9% of the Moon is Illuminated
May 6
Waning Crescent
May 9
New
May 17
First Quarter
May 24
Full
May 31
Last Quarter

Hourly Weather History & Observations

Time (HST) Temp. Heat Index Dew Point Humidity Pressure Visibility Wind Dir Wind Speed Gust Speed Precip Events Conditions
12:17 AM 77.0 °F - 64.4 °F 65% 29.93 in 10.0 mi North - - N/A   Mostly Cloudy
12:53 AM 75.9 °F - 66.0 °F 71% 29.93 in 10.0 mi North - - N/A   Partly Cloudy
1:53 AM 75.9 °F - 66.0 °F 71% 29.91 in 10.0 mi South 10.4 mph - N/A   Mostly Cloudy
2:27 AM 75.2 °F - 66.2 °F 73% 29.89 in 10.0 mi South 13.8 mph - N/A   Overcast
2:37 AM 75.2 °F - 66.2 °F 73% 29.89 in 10.0 mi South 13.8 mph - N/A   Overcast
2:53 AM 75.9 °F - 66.0 °F 71% 29.89 in 10.0 mi South 13.8 mph - N/A   Overcast
3:53 AM 75.0 °F - 64.9 °F 71% 29.89 in 10.0 mi South 15.0 mph - N/A   Partly Cloudy
4:20 AM 73.4 °F - 64.4 °F 73% 29.89 in 10.0 mi SSE 10.4 mph - N/A   Mostly Cloudy
4:53 AM 75.0 °F - 64.9 °F 71% 29.90 in 10.0 mi SSE 10.4 mph - N/A   Mostly Cloudy
5:04 AM 73.4 °F - 64.4 °F 73% 29.90 in 10.0 mi North - - N/A   Mostly Cloudy
5:40 AM 73.4 °F - 64.4 °F 73% 29.90 in 10.0 mi SE 6.9 mph - N/A   Clear
5:53 AM 73.0 °F - 64.9 °F 76% 29.91 in 10.0 mi SE 6.9 mph - N/A   Clear
5:57 AM 73.4 °F - 64.4 °F 73% 29.91 in 10.0 mi SE 9.2 mph - N/A   Clear
6:53 AM 73.9 °F - 64.0 °F 71% 29.92 in 10.0 mi SE 9.2 mph - N/A   Clear
7:53 AM 78.1 °F - 64.0 °F 62% 29.94 in 10.0 mi SSE 11.5 mph - N/A   Clear
8:09 AM 78.8 °F - 64.4 °F 61% 29.94 in 10.0 mi SSE 10.4 mph - N/A   Clear
8:53 AM 80.1 °F 81.7 °F 64.0 °F 58% 29.95 in 10.0 mi SSE 10.4 mph - N/A   Clear
9:53 AM 80.1 °F 81.9 °F 64.9 °F 60% 29.95 in 10.0 mi South 18.4 mph - N/A   Clear
11:49 AM 82.4 °F 85.4 °F 68.0 °F 62% 29.93 in 10.0 mi South 16.1 mph - N/A   Clear
1:55 PM 82.4 °F 85.4 °F 68.0 °F 62% 29.90 in 10.0 mi SSW 11.5 mph - N/A   Clear
2:50 PM 80.6 °F 83.2 °F 68.0 °F 65% 29.89 in 10.0 mi SW 13.8 mph - N/A   Scattered Clouds
3:50 PM 80.6 °F 83.2 °F 68.0 °F 65% 29.88 in 10.0 mi SW 11.5 mph - N/A   Clear
4:50 PM 78.8 °F - 68.0 °F 69% 29.88 in 10.0 mi WSW 8.1 mph - N/A   Scattered Clouds
5:50 PM 78.8 °F - 66.2 °F 65% 29.89 in 10.0 mi WSW 5.8 mph - N/A   Mostly Cloudy
6:45 PM 77.0 °F - 66.2 °F 69% 29.91 in 10.0 mi SSW 8.1 mph - N/A   Scattered Clouds
7:50 PM 77.0 °F - 68.0 °F 74% 29.93 in 25.0 mi WSW 5.8 mph - N/A   Scattered Clouds
8:50 PM 77.0 °F - 68.0 °F 74% 29.96 in 10.0 mi SSW 3.5 mph - N/A   Partly Cloudy